Flag for Germany Weather past 2 weeks in Lippstadt, North Rhine-Westphalia, Germany

Now
57 °F

Sunny.


Feels Like: 54 °F
Forecast: 51 / 64 °F
Wind: 13 mph from Southwest

Location: Paderborn / Lippstadt

Current Time: Jul 28, 2015 at 8:48:43 PM

Latest Report: Jul 28, 2015 at 8:20 PM


Visibility: 10 mi

Pressure: 29.74 "Hg

Humidity: 67%

Dew point: 46 °F

Location of LippstadtLocation

Historic Weather in Lippstadt — Graph

°F

Lippstadt temperature yesterday

Maximum temperature yesterday: 64 °F (at 5:20 PM)
Minimum temperature yesterday: 54 °F (at 12:20 AM)
Average temperature yesterday: 59 °F

Past Weeks' High & Low Weather Summary

 TemperatureHumidityPressure
High88 °F (Jul 17, 4:50 PM)100% (Jul 13, 9:20 PM)30.12 "Hg (Jul 13, 9:20 PM)
Low48 °F (Jul 26, 5:20 AM)21% (Jul 17, 4:50 PM)29.53 "Hg (Jul 25, 9:50 AM)
Average64 °F74%29.91 "Hg
* Reported Jul 13 7:20 PM — Jul 28 7:50 PM, Lippstadt, Weather by CustomWeather, © 2015

Note: Actual official high and low records may vary slightly from our data, if they occured in-between our weather recording intervals... More about our weather records

Advertising

Lippstadt weather history for previous 24 hours

 ConditionsComfort  
Time TempWeatherWind HumidityBarometerVisibility
7:50 PM
Tue, Jul 28
59 °FSunny.16 mph63%29.74 "Hg10 mi
7:20 PM59 °FPartly sunny.16 mph63%29.74 "HgN/A
6:50 PM59 °FPartly sunny.18 mph59%29.74 "HgN/A
6:20 PM59 °FPartly sunny.20 mph59%29.74 "HgN/A
5:50 PM61 °FBroken clouds.18 mph59%29.71 "HgN/A
5:20 PM59 °FBroken clouds.24 mph63%29.71 "HgN/A
4:50 PM59 °FBroken clouds.26 mph68%29.71 "HgN/A
4:20 PM61 °FScattered clouds.22 mph63%29.71 "HgN/A
3:50 PM61 °FScattered clouds.18 mph63%29.71 "HgN/A
3:20 PM59 °FSprinkles. Scattered clouds.21 mph68%29.71 "HgN/A
2:50 PM57 °FSprinkles. Scattered clouds.25 mph72%29.71 "HgN/A
2:20 PM63 °FBroken clouds.24 mph56%29.68 "HgN/A
1:50 PM63 °FBroken clouds.21 mph59%29.71 "HgN/A
1:20 PM61 °FBroken clouds.21 mph59%29.68 "HgN/A
12:50 PM59 °FPartly sunny.15 mph63%29.68 "HgN/A
12:20 PM59 °FPartly sunny.20 mph68%29.68 "HgN/A
11:50 AM59 °FPartly sunny.20 mph68%29.68 "HgN/A
11:20 AM59 °FScattered clouds.20 mph72%29.68 "HgN/A
10:50 AM57 °FPartly sunny.20 mph72%29.68 "HgN/A
10:20 AM57 °FScattered clouds.20 mph67%29.68 "HgN/A
9:50 AM57 °FPartly sunny.16 mph72%29.68 "HgN/A
9:20 AM55 °FPartly sunny.14 mph72%29.68 "HgN/A
8:50 AM55 °FPartly sunny.17 mph72%29.68 "HgN/A
8:20 AM55 °FPartly sunny.15 mph72%29.68 "HgN/A
7:50 AM55 °FPartly sunny.15 mph72%29.65 "HgN/A
7:20 AM54 °FPartly sunny.16 mph77%29.65 "HgN/A
6:50 AM54 °FScattered clouds.17 mph77%29.65 "HgN/A
6:20 AM54 °FPassing clouds.16 mph77%29.65 "HgN/A
5:50 AM54 °FPassing clouds.14 mph77%29.65 "HgN/A
5:20 AM54 °FPassing clouds.15 mph77%29.65 "HgN/A
4:50 AM54 °FPassing clouds.12 mph72%29.65 "HgN/A
4:20 AM52 °FClear.12 mph77%29.65 "Hg10 mi
3:50 AM54 °FClear.13 mph72%29.65 "Hg10 mi
3:20 AM54 °FClear.14 mph72%29.65 "Hg10 mi
2:50 AM55 °FPassing clouds.15 mph72%29.65 "HgN/A
2:20 AM57 °FPassing clouds.12 mph72%29.65 "HgN/A
1:50 AM57 °FPassing clouds.13 mph72%29.65 "HgN/A
1:20 AM57 °FPassing clouds.16 mph72%29.65 "HgN/A
12:50 AM57 °FClear.16 mph77%29.65 "Hg10 mi
12:20 AM59 °FPassing clouds.18 mph72%29.65 "HgN/A
11:50 PM
Mon, Jul 27
59 °FPassing clouds.14 mph77%29.62 "HgN/A
11:20 PM59 °FPassing clouds.16 mph77%29.62 "HgN/A
10:50 PM59 °FPassing clouds.17 mph82%29.62 "HgN/A
10:20 PM59 °FPassing clouds.18 mph77%29.62 "HgN/A
9:50 PM59 °FLight rain. Passing clouds.18 mph82%29.62 "HgN/A
9:20 PM61 °FPassing clouds.14 mph77%29.62 "HgN/A
8:50 PM61 °FPassing clouds.16 mph77%29.62 "HgN/A
8:20 PM63 °FPassing clouds.16 mph73%29.59 "HgN/A
Weather by CustomWeather, © 2015

See weather overviewHow to use our weather pages